Weather History for MHLC - July, 2013

Change the Weather History Date:

Sunday, July 21, 2013

  Actual Average Record
Temperature  
Mean Temperature 80 °F -  
Max Temperature 88 °F 86 °F - ()
Min Temperature 72 °F 71 °F - ()
Cooling Degree Days 15    
Growing Degree Days 30 (Base 50)    
Moisture  
Dew Point 74 °F    
Average Humidity 77    
Maximum Humidity 100    
Minimum Humidity 55    
Precipitation  
Precipitation 0.00 in 0.25 in - ()
Sea Level Pressure  
Sea Level Pressure 29.91 in    
Wind  
Wind Speed 4 mph ()    
Max Wind Speed 16 mph    
Max Gust Speed -    
Visibility 6.4 miles    
Events      
T = Trace of Precipitation, MM = Missing Value Source: Averaged Metar Reports

Daily Weather History Graph

Daily Weather History Graph

Search for Another Location

Airport or City:

Trip Planner

Search our weather history database for the weather conditions in past years. The results will help you decide how hot, cold, wet, or windy it might be!

Date:

Astronomy

Jul. 21, 2013 Rise Set
Actual Time 5:26 AM CST 6:21 PM CST
Civil Twilight 5:02 AM CST 6:44 PM CST
Nautical Twilight 4:35 AM CST 7:11 PM CST
Astronomical Twilight 4:07 AM CST 7:39 PM CST
Moon 5:25 PM CST (7/21) 4:08 AM CST (7/21)
Length of Visible Light 13h 41m
Length of Day
12h 55m
Waxing Gibbous, 98% of the Moon is Illuminated
Jul 21
Waxing Gibbous
Jul 22
Full
Jul 29
Last Quarter
Aug 6
New
Aug 14
First Quarter

Hourly Weather History & Observations

Time (CST) Temp. Heat Index Dew Point Humidity Pressure Visibility Wind Dir Wind Speed Gust Speed Precip Events Conditions
12:00 AM 76 °F - 74 °F 92% 29.93 in 6 mi Calm Calm - -   Haze
12:00 AM 75.2 °F - 75.2 °F 100% 29.92 in 6.2 mi Calm Calm - N/A   Mostly Cloudy
1:00 AM 75.2 °F - 73.4 °F 94% 29.89 in 6.2 mi Calm Calm - N/A   Mostly Cloudy
2:00 AM 75.2 °F - 73.4 °F 94% 29.89 in 6.2 mi Calm Calm - N/A   Mostly Cloudy
3:00 AM 74 °F - 72 °F 91% 29.88 in 6 mi Calm Calm - -   Haze
3:00 AM 73.4 °F - 71.6 °F 94% 29.89 in 6.2 mi Calm Calm - N/A   Mostly Cloudy
6:00 AM 73 °F - 71 °F 93% 29.88 in 12 mi Calm Calm - -   Haze
6:00 AM 73.4 °F - 71.6 °F 94% 29.89 in 6.2 mi Calm Calm - N/A   Mostly Cloudy
8:00 AM 82.4 °F 88.2 °F 73.4 °F 74% 29.95 in 6.2 mi Calm Calm - N/A   Scattered Clouds
9:00 AM 86 °F - 74 °F 60% 29.97 in 12 mi Calm Calm - -   Haze
9:00 AM 86.0 °F 93.4 °F 73.4 °F 66% 29.95 in 6.2 mi Calm Calm - N/A   Mostly Cloudy
10:00 AM 87.8 °F 97.6 °F 75.2 °F 66% 29.95 in 6.2 mi East 6.9 mph - N/A   Scattered Clouds
11:00 AM 87.8 °F 97.6 °F 75.2 °F 66% 29.95 in 6.2 mi ENE 6.9 mph - N/A   Scattered Clouds
12:00 PM 89 °F - 75 °F 55% 29.94 in 10 mi East 10.4 mph - -   Haze
12:00 PM 89.6 °F 99.8 °F 75.2 °F 62% 29.92 in 6.2 mi East 10.4 mph - N/A   Scattered Clouds
1:00 PM 87.8 °F 95.6 °F 73.4 °F 62% 29.92 in 6.2 mi ENE 11.5 mph - N/A   Scattered Clouds
2:00 PM 86.0 °F 93.4 °F 73.4 °F 66% 29.89 in 6.2 mi East 16.1 mph - N/A   Scattered Clouds
3:00 PM 86 °F - 76 °F 66% 29.89 in 6 mi East 15.0 mph - -   Haze
3:00 PM 86.0 °F 96.9 °F 77.0 °F 74% 29.89 in 6.2 mi East 15.0 mph - N/A   Mostly Cloudy
4:00 PM 86.0 °F 93.4 °F 73.4 °F 66% 29.89 in 2.5 mi ESE 9.2 mph - N/A   Smoke
5:00 PM 84.2 °F 90.9 °F 73.4 °F 70% 29.86 in 3.1 mi SE 15.0 mph - N/A   Smoke
6:00 PM 84 °F - 74 °F 64% 29.88 in 5 mi ESE 9.2 mph - -   Haze
6:00 PM 84.2 °F 90.9 °F 73.4 °F 70% 29.86 in 5.0 mi ESE 9.2 mph - N/A   Scattered Clouds
7:00 PM 82.4 °F 88.2 °F 73.4 °F 74% - 6.2 mi ENE 6.9 mph - N/A   Partly Cloudy
8:00 PM 82.4 °F 88.2 °F 73.4 °F 74% 29.89 in 6.2 mi ENE 11.5 mph - N/A   Partly Cloudy
9:00 PM 82 °F - 76 °F 76% 29.92 in 6 mi ENE 9.2 mph - -   Haze
9:00 PM 82.4 °F 89.5 °F 75.2 °F 79% 29.92 in 6.2 mi ENE 9.2 mph - N/A   Partly Cloudy
10:00 PM 80.6 °F 86.2 °F 75.2 °F 84% 29.92 in 6.2 mi ENE 6.9 mph - N/A   Partly Cloudy
11:00 PM 77.0 °F - 75.2 °F 94% 29.95 in 6.2 mi Calm Calm - N/A   Partly Cloudy